Location: Appeville
(49.3218°N, 1.3427°W)
Time: 02:52:48
(UTC+00:00)

Cosmos 1850 Rocket - Pass Details

Date: 08 December 2019
Orbit: 754 x 786 km, 74.0° (Epoch: 19 January)

Event Time Altitude Azimuth Distance (km) Brightness Sun altitude
Exits shadow 06:04:13 12° 335° (NNW) 2,204 6.0 -15.9°
Maximum altitude 06:09:12 81° 248° (WSW) 802 4.0 -15.1°
Drops below altitude 10° 06:14:32 10° 163° (SSE) 2,340 7.0 -14.3°
Sets 06:16:54 0° 162° (SSE) 3,263 7.8 -13.9°
